Time,TemperatureF,DewpointF,PressureIn,WindDirection,WindDirectionDegrees,WindSpeedMPH,WindSpeedGustMPH,Humidity,HourlyPrecipIn,Conditions,Clouds,dailyrainin,SoftwareType,DateUTC
2013-02-12 00:01:00,20.0,14.0,-100.00,West,280,11.0,13.0,78,0.00,,,-99.99,,2013-02-12 06:01:00,
2013-02-12 00:12:00,19.0,14.0,-100.00,WNW,285,9.0,12.0,79,0.00,,,-99.99,,2013-02-12 06:12:00,
2013-02-12 00:21:00,19.0,14.0,-100.00,WNW,290,9.0,12.0,79,0.00,,,-99.99,,2013-02-12 06:21:00,
2013-02-12 00:32:00,18.0,14.0,-100.00,WNW,285,7.0,9.0,80,0.00,,,-99.99,,2013-02-12 06:32:00,
2013-02-12 00:42:00,18.0,14.0,-100.00,WNW,285,7.0,9.0,80,0.00,,,-99.99,,2013-02-12 06:42:00,
2013-02-12 00:51:00,19.0,14.0,-100.00,West,280,9.0,12.0,81,0.00,,,-99.99,,2013-02-12 06:51:00,
2013-02-12 01:01:00,19.0,14.0,-100.00,West,280,9.0,12.0,81,0.00,,,-99.99,,2013-02-12 07:01:00,
2013-02-12 01:11:00,19.0,14.0,-100.00,WNW,285,9.0,12.0,80,0.00,,,-99.99,,2013-02-12 07:11:00,
2013-02-12 01:21:00,20.0,15.0,-100.00,West,275,11.0,17.0,79,0.00,,,-99.99,,2013-02-12 07:21:00,
2013-02-12 01:31:00,20.0,14.0,-100.00,WNW,285,12.0,17.0,76,0.00,,,-99.99,,2013-02-12 07:31:00,
2013-02-12 01:41:00,20.0,14.0,-100.00,WNW,285,12.0,17.0,76,0.00,,,-99.99,,2013-02-12 07:41:00,
2013-02-12 01:51:00,20.0,14.0,-100.00,West,280,8.0,17.0,76,0.00,,,-99.99,,2013-02-12 07:51:00,
2013-02-12 02:01:00,20.0,14.0,-100.00,West,280,8.0,17.0,76,0.00,,,-99.99,,2013-02-12 08:01:00,
2013-02-12 02:11:00,20.0,14.0,-100.00,WNW,290,13.0,17.0,77,0.00,,,-99.99,,2013-02-12 08:11:00,
2013-02-12 02:21:00,20.0,14.0,-100.00,West,275,10.0,14.0,77,0.00,,,-99.99,,2013-02-12 08:21:00,
2013-02-12 02:31:00,20.0,14.0,-100.00,West,280,8.0,14.0,77,0.00,,,-99.99,,2013-02-12 08:31:00,
2013-02-12 02:41:00,20.0,14.0,-100.00,West,280,8.0,14.0,77,0.00,,,-99.99,,2013-02-12 08:41:00,
2013-02-12 02:52:00,20.0,14.0,-100.00,WNW,285,11.0,14.0,77,0.00,,,-99.99,,2013-02-12 08:52:00,
2013-02-12 03:01:00,20.0,14.0,-100.00,WNW,285,11.0,14.0,77,0.00,,,-99.99,,2013-02-12 09:01:00,
2013-02-12 03:11:00,20.0,14.0,-100.00,WNW,285,8.0,12.0,77,0.00,,,-99.99,,2013-02-12 09:11:00,
2013-02-12 03:21:00,20.0,14.0,-100.00,West,275,7.0,11.0,77,0.00,,,-99.99,,2013-02-12 09:21:00,
2013-02-12 03:32:00,20.0,14.0,-100.00,West,270,6.0,9.0,77,0.00,,,-99.99,,2013-02-12 09:32:00,
2013-02-12 03:41:00,20.0,14.0,-100.00,West,270,6.0,9.0,77,0.00,,,-99.99,,2013-02-12 09:41:00,
2013-02-12 03:51:00,20.0,14.0,-100.00,West,275,6.0,7.0,77,0.00,,,-99.99,,2013-02-12 09:51:00,
2013-02-12 04:01:00,20.0,14.0,-100.00,West,275,6.0,7.0,77,0.00,,,-99.99,,2013-02-12 10:01:00,
2013-02-12 04:11:00,20.0,14.0,-100.00,West,275,4.0,7.0,77,0.00,,,-99.99,,2013-02-12 10:11:00,
2013-02-12 04:21:00,20.0,15.0,-100.00,West,275,4.0,6.0,77,0.00,,,-99.99,,2013-02-12 10:21:00,
2013-02-12 04:31:00,20.0,15.0,-100.00,WSW,240,2.0,5.0,78,0.00,,,-99.99,,2013-02-12 10:31:00,
2013-02-12 04:43:00,20.0,15.0,-100.00,WSW,240,2.0,5.0,78,0.00,,,-99.99,,2013-02-12 10:43:00,
2013-02-12 04:51:00,20.0,15.0,-100.00,WSW,250,2.0,6.0,79,0.00,,,-99.99,,2013-02-12 10:51:00,
2013-02-12 05:01:00,20.0,15.0,-100.00,WSW,250,2.0,6.0,79,0.00,,,-99.99,,2013-02-12 11:01:00,
2013-02-12 05:11:00,20.0,15.0,-100.00,WSW,245,3.0,4.0,79,0.00,,,-99.99,,2013-02-12 11:11:00,
2013-02-12 05:21:00,20.0,15.0,-100.00,SW,215,2.0,4.0,79,0.00,,,-99.99,,2013-02-12 11:21:00,
2013-02-12 05:32:00,21.0,15.0,-100.00,SW,220,1.0,2.0,79,0.00,,,-99.99,,2013-02-12 11:32:00,
2013-02-12 05:41:00,21.0,15.0,-100.00,SW,220,1.0,2.0,79,0.00,,,-99.99,,2013-02-12 11:41:00,
2013-02-12 05:52:00,21.0,16.0,-100.00,SW,215,1.0,3.0,80,0.00,,,-99.99,,2013-02-12 11:52:00,
2013-02-12 06:01:00,21.0,16.0,-100.00,SW,215,1.0,3.0,80,0.00,,,-99.99,,2013-02-12 12:01:00,
2013-02-12 06:11:00,21.0,16.0,-100.00,South,185,2.0,4.0,80,0.00,,,-99.99,,2013-02-12 12:11:00,
2013-02-12 06:21:00,20.0,16.0,-100.00,SSW,195,2.0,4.0,80,0.00,,,-99.99,,2013-02-12 12:21:00,
2013-02-12 06:32:00,20.0,15.0,-100.00,SSW,195,1.0,5.0,82,0.00,,,-99.99,,2013-02-12 12:32:00,
2013-02-12 06:42:00,20.0,15.0,-100.00,SSW,195,1.0,5.0,82,0.00,,,-99.99,,2013-02-12 12:42:00,
2013-02-12 06:52:00,19.0,15.0,-100.00,South,190,2.0,4.0,83,0.00,,,-99.99,,2013-02-12 12:52:00,
2013-02-12 07:01:00,19.0,15.0,-100.00,South,190,2.0,4.0,83,0.00,,,-99.99,,2013-02-12 13:01:00,
2013-02-12 07:11:00,18.0,15.0,-100.00,South,185,2.0,5.0,84,0.00,,,-99.99,,2013-02-12 13:11:00,
2013-02-12 07:22:00,18.0,14.0,-100.00,SW,215,2.0,4.0,84,0.00,,,-99.99,,2013-02-12 13:22:00,
2013-02-12 07:32:00,18.0,15.0,-100.00,SSW,205,2.0,4.0,86,0.00,,,-99.99,,2013-02-12 13:32:00,
2013-02-12 07:42:00,18.0,15.0,-100.00,SSW,205,2.0,4.0,86,0.00,,,-99.99,,2013-02-12 13:42:00,
2013-02-12 07:51:00,19.0,15.0,-100.00,South,190,2.0,6.0,86,0.00,,,-99.99,,2013-02-12 13:51:00,
2013-02-12 08:01:00,19.0,15.0,-100.00,South,190,2.0,6.0,86,0.00,,,-99.99,,2013-02-12 14:01:00,
2013-02-12 08:11:00,19.0,16.0,-100.00,SSW,205,2.0,4.0,87,0.00,,,-99.99,,2013-02-12 14:11:00,
2013-02-12 08:21:00,19.0,16.0,-100.00,SSW,205,2.0,5.0,87,0.00,,,-99.99,,2013-02-12 14:21:00,
2013-02-12 08:32:00,22.0,18.0,-100.00,South,185,2.0,5.0,86,0.00,,,-99.99,,2013-02-12 14:32:00,
2013-02-12 08:42:00,22.0,18.0,-100.00,South,185,2.0,5.0,86,0.00,,,-99.99,,2013-02-12 14:42:00,
2013-02-12 08:52:00,24.0,20.0,-100.00,SW,215,4.0,6.0,82,0.00,,,-99.99,,2013-02-12 14:52:00,
2013-02-12 09:02:00,24.0,20.0,-100.00,SW,215,4.0,6.0,82,0.00,,,-99.99,,2013-02-12 15:02:00,
2013-02-12 09:11:00,26.0,20.0,-100.00,South,180,2.0,7.0,79,0.00,,,-99.99,,2013-02-12 15:11:00,
2013-02-12 09:21:00,26.0,19.0,-100.00,SW,215,6.0,9.0,76,0.00,,,-99.99,,2013-02-12 15:21:00,
2013-02-12 09:32:00,27.0,20.0,-100.00,SW,215,4.0,9.0,72,0.00,,,-99.99,,2013-02-12 15:32:00,
2013-02-12 09:42:00,27.0,20.0,-100.00,SW,215,4.0,9.0,72,0.00,,,-99.99,,2013-02-12 15:42:00,
2013-02-12 09:52:00,29.0,20.0,-100.00,SW,220,6.0,10.0,67,0.00,,,-99.99,,2013-02-12 15:52:00,
2013-02-12 10:01:00,29.0,20.0,-100.00,SW,220,6.0,10.0,67,0.00,,,-99.99,,2013-02-12 16:01:00,
2013-02-12 10:11:00,29.0,20.0,-100.00,SW,235,6.0,10.0,65,0.00,,,-99.99,,2013-02-12 16:11:00,
2013-02-12 10:22:00,30.0,20.0,-100.00,SW,225,6.0,11.0,64,0.00,,,-99.99,,2013-02-12 16:22:00,
2013-02-12 10:31:00,29.0,19.0,-100.00,SW,230,7.0,13.0,64,0.00,,,-99.99,,2013-02-12 16:31:00,
2013-02-12 10:41:00,29.0,19.0,-100.00,SW,230,7.0,13.0,64,0.00,,,-99.99,,2013-02-12 16:41:00,
2013-02-12 10:51:00,32.0,20.0,-100.00,SW,215,6.0,13.0,60,0.00,,,-99.99,,2013-02-12 16:51:00,
2013-02-12 11:01:00,32.0,20.0,-100.00,SW,215,6.0,13.0,60,0.00,,,-99.99,,2013-02-12 17:01:00,
2013-02-12 11:11:00,32.0,19.0,-100.00,SW,230,7.0,11.0,59,0.00,,,-99.99,,2013-02-12 17:11:00,
2013-02-12 11:21:00,32.0,19.0,-100.00,SW,215,7.0,11.0,59,0.00,,,-99.99,,2013-02-12 17:21:00,
2013-02-12 11:32:00,33.0,20.0,-100.00,SW,215,7.0,11.0,57,0.00,,,-99.99,,2013-02-12 17:32:00,
2013-02-12 11:42:00,33.0,20.0,-100.00,SW,215,7.0,11.0,57,0.00,,,-99.99,,2013-02-12 17:42:00,
2013-02-12 11:52:00,34.0,20.0,-100.00,SSW,205,6.0,11.0,57,0.00,,,-99.99,,2013-02-12 17:52:00,
2013-02-12 12:01:00,34.0,20.0,-100.00,SSW,205,6.0,11.0,57,0.00,,,-99.99,,2013-02-12 18:01:00,
2013-02-12 12:11:00,34.0,21.0,-100.00,SSW,200,6.0,12.0,59,0.00,,,-99.99,,2013-02-12 18:11:00,
2013-02-12 12:22:00,34.0,22.0,-100.00,SW,220,7.0,12.0,59,0.00,,,-99.99,,2013-02-12 18:22:00,
2013-02-12 12:31:00,35.0,22.0,-100.00,SSW,210,9.0,15.0,59,0.00,,,-99.99,,2013-02-12 18:31:00,
2013-02-12 12:41:00,35.0,22.0,-100.00,SSW,210,9.0,15.0,59,0.00,,,-99.99,,2013-02-12 18:41:00,
2013-02-12 12:51:00,35.0,23.0,-100.00,SW,230,9.0,14.0,61,0.00,,,-99.99,,2013-02-12 18:51:00,
2013-02-12 13:02:00,35.0,23.0,-100.00,SW,230,9.0,14.0,61,0.00,,,-99.99,,2013-02-12 19:02:00,
2013-02-12 13:11:00,35.0,23.0,-100.00,SSW,205,7.0,16.0,62,0.00,,,-99.99,,2013-02-12 19:11:00,
2013-02-12 13:21:00,34.0,23.0,-100.00,SW,220,9.0,14.0,62,0.00,,,-99.99,,2013-02-12 19:21:00,
2013-02-12 13:31:00,35.0,24.0,-100.00,SW,215,8.0,14.0,64,0.00,,,-99.99,,2013-02-12 19:31:00,
2013-02-12 13:41:00,35.0,24.0,-100.00,SW,215,8.0,14.0,64,0.00,,,-99.99,,2013-02-12 19:41:00,
2013-02-12 13:51:00,35.0,24.0,-100.00,SSW,195,7.0,15.0,64,0.00,,,-99.99,,2013-02-12 19:51:00,
2013-02-12 14:01:00,35.0,24.0,-100.00,SSW,195,7.0,15.0,64,0.00,,,-99.99,,2013-02-12 20:01:00,
2013-02-12 14:11:00,36.0,25.0,-100.00,SSW,205,8.0,13.0,65,0.00,,,-99.99,,2013-02-12 20:11:00,
2013-02-12 14:21:00,36.0,25.0,-100.00,SW,215,7.0,15.0,64,0.00,,,-99.99,,2013-02-12 20:21:00,
2013-02-12 14:31:00,36.0,25.0,-100.00,SW,225,9.0,17.0,64,0.00,,,-99.99,,2013-02-12 20:31:00,
2013-02-12 14:41:00,36.0,25.0,-100.00,SW,225,9.0,17.0,64,0.00,,,-99.99,,2013-02-12 20:41:00,
2013-02-12 14:51:00,37.0,26.0,-100.00,SW,235,9.0,17.0,65,0.00,,,-99.99,,2013-02-12 20:51:00,
2013-02-12 15:01:00,37.0,26.0,-100.00,SW,235,9.0,17.0,65,0.00,,,-99.99,,2013-02-12 21:01:00,
2013-02-12 15:11:00,37.0,26.0,-100.00,SSW,205,9.0,19.0,64,0.00,,,-99.99,,2013-02-12 21:11:00,
2013-02-12 15:21:00,37.0,26.0,-100.00,SW,225,11.0,17.0,63,0.00,,,-99.99,,2013-02-12 21:21:00,
2013-02-12 15:31:00,37.0,26.0,-100.00,WSW,245,10.0,16.0,63,0.00,,,-99.99,,2013-02-12 21:31:00,
2013-02-12 15:42:00,37.0,26.0,-100.00,WSW,245,10.0,16.0,63,0.00,,,-99.99,,2013-02-12 21:42:00,
2013-02-12 15:51:00,37.0,26.0,-100.00,SW,230,10.0,16.0,62,0.00,,,-99.99,,2013-02-12 21:51:00,
2013-02-12 16:01:00,37.0,26.0,-100.00,SW,230,10.0,16.0,62,0.00,,,-99.99,,2013-02-12 22:01:00,
2013-02-12 16:12:00,37.0,26.0,-100.00,SW,225,12.0,16.0,62,0.00,,,-99.99,,2013-02-12 22:12:00,
2013-02-12 16:21:00,37.0,26.0,-100.00,SW,230,11.0,17.0,63,0.00,,,-99.99,,2013-02-12 22:21:00,
2013-02-12 16:32:00,36.0,25.0,-100.00,WSW,245,10.0,14.0,63,0.00,,,-99.99,,2013-02-12 22:32:00,
2013-02-12 16:41:00,36.0,25.0,-100.00,WSW,245,10.0,14.0,63,0.00,,,-99.99,,2013-02-12 22:41:00,
2013-02-12 16:51:00,36.0,25.0,-100.00,SW,235,9.0,12.0,64,0.00,,,-99.99,,2013-02-12 22:51:00,
2013-02-12 17:01:00,36.0,25.0,-100.00,SW,235,9.0,12.0,64,0.00,,,-99.99,,2013-02-12 23:01:00,
2013-02-12 17:11:00,36.0,26.0,-100.00,WSW,240,6.0,10.0,65,0.00,,,-99.99,,2013-02-12 23:11:00,
2013-02-12 17:21:00,36.0,26.0,-100.00,WSW,250,7.0,10.0,65,0.00,,,-99.99,,2013-02-12 23:21:00,
2013-02-12 17:32:00,35.0,26.0,-100.00,WSW,255,5.0,8.0,68,0.00,,,-99.99,,2013-02-12 23:32:00,
2013-02-12 17:41:00,35.0,26.0,-100.00,WSW,255,5.0,8.0,68,0.00,,,-99.99,,2013-02-12 23:41:00,
2013-02-12 17:52:00,33.0,25.0,-100.00,WSW,245,5.0,9.0,71,0.00,,,-99.99,,2013-02-12 23:52:00,
2013-02-12 18:02:00,33.0,25.0,-100.00,WSW,245,5.0,9.0,71,0.00,,,-99.99,,2013-02-13 00:02:00,
2013-02-12 18:11:00,33.0,26.0,-100.00,WSW,245,4.0,6.0,74,0.00,,,-99.99,,2013-02-13 00:11:00,
2013-02-12 18:21:00,32.0,26.0,-100.00,SW,230,4.0,6.0,76,0.00,,,-99.99,,2013-02-13 00:21:00,
2013-02-12 18:32:00,31.0,26.0,-100.00,West,265,4.0,5.0,80,0.00,,,-99.99,,2013-02-13 00:32:00,
2013-02-12 18:42:00,31.0,26.0,-100.00,West,265,4.0,5.0,80,0.00,,,-99.99,,2013-02-13 00:42:00,
2013-02-12 18:51:00,31.0,27.0,-100.00,West,270,4.0,6.0,82,0.00,,,-99.99,,2013-02-13 00:51:00,
2013-02-12 19:01:00,31.0,27.0,-100.00,West,270,4.0,6.0,82,0.00,,,-99.99,,2013-02-13 01:01:00,
2013-02-12 19:11:00,31.0,27.0,-100.00,West,275,4.0,5.0,83,0.00,,,-99.99,,2013-02-13 01:11:00,
2013-02-12 19:21:00,31.0,27.0,-100.00,West,260,2.0,4.0,84,0.00,,,-99.99,,2013-02-13 01:21:00,
2013-02-12 19:31:00,30.0,26.0,-100.00,SW,235,4.0,5.0,86,0.00,,,-99.99,,2013-02-13 01:31:00,
2013-02-12 19:42:00,30.0,26.0,-100.00,SW,235,4.0,5.0,86,0.00,,,-99.99,,2013-02-13 01:42:00,
2013-02-12 19:51:00,29.0,26.0,-100.00,WSW,250,2.0,3.0,88,0.00,,,-99.99,,2013-02-13 01:51:00,
2013-02-12 20:01:00,29.0,26.0,-100.00,WSW,250,2.0,3.0,88,0.00,,,-99.99,,2013-02-13 02:01:00,
2013-02-12 20:11:00,29.0,26.0,-100.00,WSW,245,1.0,2.0,88,0.00,,,-99.99,,2013-02-13 02:11:00,
2013-02-12 20:21:00,28.0,26.0,-100.00,WSW,245,3.0,4.0,89,0.00,,,-99.99,,2013-02-13 02:21:00,
2013-02-12 20:31:00,28.0,26.0,-100.00,WSW,250,2.0,3.0,90,0.00,,,-99.99,,2013-02-13 02:31:00,
2013-02-12 20:41:00,28.0,26.0,-100.00,WSW,250,2.0,3.0,90,0.00,,,-99.99,,2013-02-13 02:41:00,
2013-02-12 20:52:00,28.0,26.0,-100.00,West,265,2.0,4.0,91,0.00,,,-99.99,,2013-02-13 02:52:00,
2013-02-12 21:01:00,28.0,26.0,-100.00,West,265,2.0,4.0,91,0.00,,,-99.99,,2013-02-13 03:01:00,
2013-02-12 21:11:00,28.0,26.0,-100.00,West,260,2.0,4.0,92,0.00,,,-99.99,,2013-02-13 03:11:00,
2013-02-12 21:21:00,28.0,26.0,-100.00,West,270,4.0,6.0,92,0.00,,,-99.99,,2013-02-13 03:21:00,
2013-02-12 21:32:00,28.0,26.0,-100.00,West,275,3.0,6.0,92,0.00,,,-99.99,,2013-02-13 03:32:00,
2013-02-12 21:41:00,28.0,26.0,-100.00,West,275,3.0,6.0,92,0.00,,,-99.99,,2013-02-13 03:41:00,
2013-02-12 21:51:00,28.0,26.0,-100.00,West,280,4.0,6.0,93,0.00,,,-99.99,,2013-02-13 03:51:00,
2013-02-12 22:01:00,28.0,26.0,-100.00,West,280,4.0,6.0,93,0.00,,,-99.99,,2013-02-13 04:01:00,
2013-02-12 22:11:00,27.0,26.0,-100.00,West,280,4.0,6.0,93,0.00,,,-99.99,,2013-02-13 04:11:00,
2013-02-12 22:21:00,28.0,26.0,-100.00,West,270,2.0,5.0,93,0.00,,,-99.99,,2013-02-13 04:21:00,
2013-02-12 22:31:00,27.0,26.0,-100.00,West,280,3.0,4.0,93,0.00,,,-99.99,,2013-02-13 04:31:00,
2013-02-12 22:41:00,27.0,26.0,-100.00,West,280,3.0,4.0,93,0.00,,,-99.99,,2013-02-13 04:41:00,
2013-02-12 22:51:00,27.0,25.0,-100.00,West,280,6.0,7.0,93,0.00,,,-99.99,,2013-02-13 04:51:00,
2013-02-12 23:01:00,27.0,25.0,-100.00,West,280,6.0,7.0,93,0.00,,,-99.99,,2013-02-13 05:01:00,
2013-02-12 23:11:00,26.0,25.0,-100.00,West,280,6.0,7.0,93,0.00,,,-99.99,,2013-02-13 05:11:00,
2013-02-12 23:22:00,26.0,25.0,-100.00,West,280,4.0,7.0,93,0.00,,,-99.99,,2013-02-13 05:22:00,
2013-02-12 23:31:00,26.0,24.0,-100.00,WNW,290,3.0,4.0,93,0.00,,,-99.99,,2013-02-13 05:31:00,
2013-02-12 23:41:00,26.0,24.0,-100.00,WNW,290,3.0,4.0,93,0.00,,,-99.99,,2013-02-13 05:41:00,
2013-02-12 23:52:00,25.0,23.0,-100.00,WNW,295,6.0,7.0,93,0.00,,,-99.99,,2013-02-13 05:52:00,